Find STARLINK-37568

NORAD ID: 799500937 Int'l Des: 2026-130Q Constellation: starlink operational

当前视图

正在加载3D地球...

About STARLINK-37568

STARLINK-37568 (NORAD 799500937) is a starlink constellation satellite launched Jun 7, 2026

关于 STARLINK-37568

正在加载描述...

即将过境

Passes for default location (London). Set your location on the main map for personalized predictions.

高度历史

Loading altitude history...

两行轨道根数

1 99999C 2026130Q 26163.04631943 .00495600 00000-0 748530-4 0 1635
2 99999 97.2800 182.7577 0011165 273.2011 100.9834 16.04222088 19
Epoch: Jun 12, 2026 • Age: 7 hours